Location: Buchberg
(46.9333°N, 15.8500°E)
Time: 04:27:27
(UTC+00:00)

Cosmos 1833 Rocket - Pass Details

Date: 14 July 2020
Orbit: 832 x 840 km, 71.0° (Epoch: 11 August)

Event Time Altitude Azimuth Distance (km) Brightness Sun altitude
Exits shadow 00:44:57 27° 179° (S) 1,562 3.6 -17.6°
Maximum altitude 00:47:56 58° 111° (ESE) 972 3.0 -17.4°
Drops below altitude 10° 00:53:26 10° 34° (NE) 2,453 6.4 -17.0°
Sets 00:55:55 0° 30° (NNE) 3,393 7.7 -16.8°
